Find JCSAT RA

NORAD ID: 35755 Int'l Des: 2009-044 Owner: SKPJ Country: J operational
HEOCIRCULARGSOGEO

当前视图

正在加载3D地球...

About JCSAT RA

JCSAT RA (NORAD 35755) is a satellite launched Aug 21, 2009 by SKPJ of J. It operates in HEO, CIRCULAR, GSO, GEO orbit with a mass of 4050.00 kg.

即将过境

Passes for default location (London). Set your location on the main map for personalized predictions.

高度历史

Loading altitude history...

两行轨道根数

1 35755U 09044A 26195.01485617 -.00000333 00000-0 00000+0 0 9996
2 35755 0.0594 266.3408 0000737 291.0845 231.8522 1.00272556 61873
Epoch: Jul 14, 2026 • Age: 9 hours

当前状态

高度 35782.9 km
远地点 / 近地点 N/A
速度 3.07 km/s
星下点 -0.04°S, 132.06°E
发射日期 Aug 21, 2009
运行时间 16.8 years
类型 other

技术详情

分类 Payload
质量 4050.00 kg
干质量 1850.00 kg
总质量 4050.00 kg
长度 5.50 m
直径 2.20 m
跨度 26.90 m
形状 Box + 2 Pan
制造商 LMCSS
平台类型 A2100AXS
阶段状态 Renamed
所有者/国家 SKPJ/J

Most Searched